Location: Ergnies
(50.0854°N, 2.0375°E)
Time: 15:17:08
(UTC+00:00)

Cosmos 1408 Rocket - Pass Details

Date: 14 January 2026
Orbit: 594 x 623 km, 82.6° (Epoch: 18 February)

Event Time Altitude Azimuth Distance (km) Brightness Sun altitude
Rises 06:03:54 0° 204° (SSW) 2,863 6.9 -15.7°
Reaches altitude 10° 06:06:11 10° 210° (SSW) 1,959 6.0 -15.3°
Maximum altitude 06:10:22 47° 284° (WNW) 803 3.7 -14.7°
Drops below altitude 10° 06:14:34 10° 360° (N) 1,957 6.0 -14.0°
Sets 06:16:51 0° 6° (N) 2,861 6.9 -13.7°
